Regional Weather Roundup
Issued by NWS Newport/Morehead, NC

Current Version | Previous Version | Graphics & Text | Print | Product List | Glossary On
Versions: 1 2 3 4 5 6 7 8 9 10 11 12 13 14 15 16 17 18 19 20 21 22 23 24 25 26 27 28 29 30 31 32 33 34 35 36 37 38 39 40 41 42 43 44 45 46 47 48 49 50
561 ASUS42 KMHX 280513 RWRMHX WEATHER ROUNDUP FOR EASTERN NORTH CAROLINA NATIONAL WEATHER SERVICE NEWPORT/MOREHEAD CITY NC 100 AM EDT SUN MAY 28 2017 NOTE: "FAIR" INDICATES FEW OR NO CLOUDS BELOW 12,000 FEET WITH NO SIGNIFICANT WEATHER AND/OR OBSTRUCTIONS TO VISIBILITY NCZ015>017-031-032-045>047-102-103-280600- NORTH COAST CITY SKY/WX TMP DP RH WIND PRES REMARKS EDENTON CLOUDY 74 64 72 CALM 29.88S ELIZABETH CITY CLOUDY 66 66 100 SW5 29.86F KITTY HAWK CLOUDY 68 67 95 CALM 29.86F MANTEO CLOUDY 68 65 89 S3 29.87F $$ NCZ045>047-081-094-103-104-280600- CENTRAL COAST CITY SKY/WX TMP DP RH WIND PRES REMARKS FRISCO MOCLDY 76 70 82 NW10G20 29.93R $$ NCZ095-097-098-100-101-280600- SOUTHERN COAST CITY SKY/WX TMP DP RH WIND PRES REMARKS BEAUFORT CLEAR 75 73 93 SW9 29.89F CEDAR ISLAND NOT AVBL JACKSONVILLE PTCLDY 72 70 93 SW3 29.89F PINEY ISLAND PTCLDY N/A N/A N/A SW6 29.88F WILMINGTON CLEAR 74 70 87 SW7 29.91S $$ NCZ011>013-027>030-043-044-078>080-089-090>093-098-280600- COASTAL PLAIN CITY SKY/WX TMP DP RH WIND PRES REMARKS AHOSKIE NOT AVBL CLINTON PTCLDY 73 69 87 CALM 29.91R ELIZABETHTOWN MOCLDY 73 67 81 S3 29.91R GOLDSBORO MOCLDY 74 72 95 CALM 29.88S GREENVILLE MOCLDY 77 70 78 SW7 29.90S HAVELOCK CLEAR 73 68 84 S5 29.90F KENANSVILLE PTCLDY 70 68 94 CALM 29.90S KINSTON PTCLDY 73 69 89 CALM 29.89F NEW BERN PTCLDY 72 70 93 SW6 29.90F RICHLANDS PTCLDY 70 68 93 SW3 29.91F ROCKY MOUNT PTCLDY 71 69 93 S3 29.88S WASHINGTON CLEAR 73 70 90 CALM 29.89R WHITEVILLE PTCLDY 73 68 85 CALM 29.90S $$ AMZ130-135-150-152-154-156-158-170-250-252-270-ANZ085-086-088-633-658-670-280600- MARINE OBSERVATIONS STATION/POSITION TIME TEMP WIND PRES WAVE SWELL AIR SEA DIR/SP/G HT/PER HT/PER (UTC) (F) (DEG/KT/KT) (MB) (FT/S) (FT/S) CHESAPEAKE LIGHT NOT AVBL 64 E VA BEACH 0450 67 65 300/ 12/ 14 1011.9 3/ 8 2/ 8 DUCK 0448 71 63 200/ 10/ 14 1010.9 2 E DUCK 0500 65 N/A 1/ 7 OREGON INLET 0448 250/ 3/ 5 N/A 13E OREGON INLT 0448 67 N/A 3/ 7 2/ 7 HATTERAS CG 0448 75 75 310/ 13/ 19 1013.0 DIAMOND BUOY 0450 77 77 230/ 14/ 16 1012.4 3/ 4 2/ 7 CAPE LOOKOUT 0500 75 230/ 8/ 11 1012.1 BEAUFORT LAB 0448 75 73 230/ 4/ 7 1011.6 30 SE NEW RVR IN 0408 77 77 240/ 16/ 19 1012.9 30 SE NEW RVR IN 0443 77 N/A 5/ 6 27 SE WRIGHTSVLE 0408 76 77 220/ 17/ 21 1012.4 5 SE WRIGHTSVLE NOT AVBL 225 S CAPE HAT 0450 76 77 230/ 12/ 14 1015.7 3/ 7 2/ 7 41 SE CHARLESTON 0450 76 75 220/ 12/ 16 1013.9 3/ 7 2/ 7 $$

USA.gov is the U.S. government's official web portal to all federal, state and local government web resources and services.